[[{"header":{"parameterUnit":"m.s-1","parameterCategory":2,"la1":30.2991,"la2":30.254,"lo1":-89.0895,"lo2":-89.0444,"dy":0.0017,"dx":0.0017,"nx":28,"ny":28,"refTime":"2024-11-22T09:00:00:Z","depth":"0","parameterNumber":2,"parameterNumberName":"U-component_of_CURRENTS"},"data":[0,0,0,0,0,0,0,0,0,0,0,0,0,0,0,0,0,0,0,0,0,0,0,0,0,0,0,0,0,0,0,0,0,0,0,0,0,0,0,0,0,0,0,0,0,0,0,0,0,0,0,0,0,0,0,0,0,0,0.2126,0.2127,0,0.2181,0.2182,0.2182,0.2184,0.2184,0.2183,0.2183,0.2171,0.2172,0.2172,0,0,0,0,0,0,0,0,0,0,0,0,0,0.2114,0.2113,0.2126,0.2127,0.2128,0.2181,0.2182,0.2182,0.2184,0.2184,0.2183,0.2183,0.2171,0.2171,0.2172,0,0,0,0,0,0,0,0,0,0,0,0,0,0.2137,0.2113,0.2126,0.2137,0.2139,0.2181,0.2182,0.2183,0.2185,0.2184,0.2183,0.2183,0.2171,0.2171,0.2172,0.2187,0,0,0.2172,0.2172,0,0,0,0,0,0,0,0,0.2135,0.2137,0.2134,0.2136,0.2138,0.2177,0.2174,0.2181,0.2185,0.2165,0.2183,0.2182,0.2169,0.2169,0.2179,0.2186,0.2186,0.2172,0.2172,0.2172,0.2172,0,0,0,0,0,0,0,0.2133,0.2135,0.2146,0.2135,0.2138,0.2171,0.2172,0.2176,0.2167,0.2166,0.2167,0.2177,0.2169,0.2179,0.2179,0.2185,0.2172,0.2172,0.2172,0.2173,0.2218,0.2219,0,0,0,0,0,0,0.2127,0.2133,0.2144,0.2147,0.2138,0.2171,0.2173,0.2164,0.2169,0.217,0.2178,0.2177,0.2179,0.2179,0.2178,0.2202,0.2172,0.2173,0.2173,0.2217,0.2218,0.2219,0,0,0,0,0,0,0.2126,0.2127,0.2142,0.2145,0.2149,0.2172,0.2162,0.2165,0.2178,0.2178,0.2178,0.2187,0.2179,0.2178,0.2191,0.2201,0.2173,0.2173,0.2216,0.2217,0.2219,0.2246,0,0,0,0,0,0,0.2125,0.2125,0.2119,0.2143,0.2149,0.217,0.2163,0.2167,0.2186,0.2185,0.2186,0.2185,0.2178,0.2191,0.2191,0.2201,0.2173,0.2214,0.2216,0.2218,0.2244,0.2249,0.2253,0,0,0,0,0,0.2124,0.2125,0.2118,0.212,0.2137,0.2171,0.2177,0.219,0.2187,0.2197,0.2201,0.2185,0.2204,0.2192,0.2192,0.2202,0.2213,0.2216,0.2218,0.2242,0.2248,0.2253,0,0,0,0,0,0,0.2124,0.2126,0.2119,0.212,0.2143,0.2172,0.2187,0.2195,0.2208,0.2204,0.22,0.2199,0.2215,0.2209,0.2196,0.2223,0.2206,0.2208,0.2224,0.2229,0.2234,0.222,0.2173,0,0,0,0,0,0.2119,0.2114,0.2129,0.2133,0.2142,0.2164,0.218,0.2187,0.2204,0.2209,0.2212,0.2216,0.2226,0.2228,0.2234,0.2249,0.2243,0.2256,0.2261,0.2264,0.2255,0.2269,0.2274,0.2228,0.2228,0.2228,0,0,0.2124,0.2124,0.2122,0.2133,0.215,0.2168,0.2171,0.2196,0.221,0.2205,0.2224,0.2232,0.2235,0.2253,0.2259,0.2248,0.2277,0.2267,0.227,0.2259,0.2272,0.2276,0.228,0.2229,0.2229,0.2229,0,0,0.2139,0.2127,0.213,0.2145,0.2166,0.2179,0.2187,0.2213,0.2221,0.2244,0.2245,0.2259,0.2274,0.228,0.2284,0.2316,0.2302,0.2322,0.2328,0.2343,0.2347,0.235,0.2355,0.2358,0.2321,0.2321,0.2321,0,0.2145,0.214,0.2142,0.2154,0.2166,0.2183,0.2197,0.2215,0.2244,0.2251,0.225,0.2283,0.2285,0.2306,0.2318,0.2324,0.2328,0.2307,0.2348,0.235,0.2353,0.2357,0.236,0.2323,0.2323,0.2323,0.2322,0,0.216,0.216,0.217,0.2176,0.2192,0.2211,0.2229,0.2245,0.2255,0.2272,0.2296,0.2308,0.2323,0.2334,0.2334,0.2357,0.2353,0.2353,0.233,0.2359,0.2362,0.2365,0.2325,0.2325,0.2324,0.2324,0,0,0.2158,0.2174,0.2175,0.218,0.22,0.2217,0.2237,0.226,0.2284,0.2299,0.2326,0.2342,0.2347,0.2352,0.236,0.2371,0.2397,0.2369,0.2369,0.2367,0.2425,0.2368,0.2365,0.2406,0.2407,0.2407,0.2423,0,0.2168,0.2183,0.2189,0.2211,0.222,0.2234,0.2257,0.2279,0.2305,0.234,0.2344,0.2376,0.2356,0.2373,0.2379,0.2401,0.2404,0.2392,0.2404,0.2404,0.2343,0.2366,0.2272,0.2272,0.2425,0.2425,0.2426,0,0.2168,0.218,0.2194,0.2218,0.2225,0.2244,0.2277,0.2303,0.2346,0.2368,0.2387,0.2401,0.2417,0.2404,0.2421,0.2416,0.2414,0.2423,0.2424,0.2357,0.235,0.2268,0.2271,0.2225,0.243,0.2429,0.2429,0,0.2151,0.2179,0.2187,0.2195,0.223,0.2241,0.2265,0.2308,0.2335,0.2391,0.2413,0.2437,0.245,0.2454,0.2445,0.2444,0.2464,0.2468,0.2408,0.2404,0.2317,0.2304,0.2265,0.247,0.247,0.247,0.247,0,0.2143,0.2152,0.2182,0.2188,0.2211,0.2238,0.2274,0.2308,0.2362,0.2389,0.2423,0.2442,0.2464,0.2468,0.2462,0.2433,0.247,0.2405,0.2403,0.2325,0.2313,0.2262,0.2246,0.2471,0.2471,0.2471,0.2471,0,0.2117,0.2135,0.2149,0.2187,0.22,0.2217,0.2269,0.23,0.2353,0.2389,0.2402,0.2453,0.2457,0.2459,0.2478,0.2445,0.2367,0.2414,0.2312,0.2297,0.2191,0.218,0.2062,0.2003,0.2359,0.2357,0.2356,0,0.21,0.2105,0.2142,0.215,0.2166,0.2198,0.2221,0.2287,0.2318,0.238,0.2391,0.2418,0.2406,0.2409,0.2382,0.2355,0.2302,0.2248,0.2222,0.2163,0.2152,0.209,0.2046,0.2126,0.2123,0.2121,0.2119,0,0.2073,0.2087,0.2101,0.212,0.2141,0.2161,0.2198,0.2216,0.2279,0.2292,0.2307,0.2306,0.232,0.2254,0.223,0.2207,0.2142,0.2197,0.2167,0.1983,0.1882,0.1832,0.2141,0.2097,0.21,0.2101,0.2102,0.2103,0.2048,0.205,0.2068,0.2078,0.2096,0.2096,0.2067,0.2103,0.2107,0.2087,0.2176,0.2127,0.214,0.2096,0.2061,0.1967,0.1985,0.1908,0.1907,0.1856,0.1764,0.2015,0.195,0.1952,0.1953,0.1954,0.1955,0,0.1999,0.2008,0.2022,0.201,0.1986,0.2024,0.2022,0.1964,0.1899,0.1944,0.1922,0.1896,0.1839,0.1841,0.1783,0.1702,0.1636,0.1651,0.1555,0.1533,0.1784,0.1739,0.1589,0.1589,0.1589,0.1589,0.1589,0.1589,0.1973,0.1958,0.1961,0.1894,0.1878,0.179,0.1753,0.1686,0.168,0.1608,0.1582,0.1611,0.1685,0.1659,0.1567,0.1522,0.1421,0.1334,0.1355,0.1556,0.158,0.1604,0.1558,0.1371,0.1371,0.1038,0.1036,0.1034]},{"header":{"parameterUnit":"m.s-1","parameterCategory":2,"la1":30.2991,"la2":30.254,"lo1":-89.0895,"lo2":-89.0444,"dy":0.0017,"dx":0.0017,"nx":28,"ny":28,"refTime":"2024-11-22T09:00:00:Z","depth":"0","parameterNumber":3,"parameterNumberName":"V-component_of_CURRENTS"},"data":[0,0,0,0,0,0,0,0,0,0,0,0,0,0,0,0,0,0,0,0,0,0,0,0,0,0,0,0,0,0,0,0,0,0,0,0,0,0,0,0,0,0,0,0,0,0,0,0,0,0,0,0,0,0,0,0,0,0,-0.0147,-0.0147,0,-0.0175,-0.0175,-0.0175,-0.0208,-0.0208,-0.0208,-0.0209,-0.0248,-0.0249,-0.025,0,0,0,0,0,0,0,0,0,0,0,0,0,-0.0203,-0.0202,-0.0146,-0.0147,-0.0147,-0.0175,-0.0175,-0.0176,-0.0208,-0.0208,-0.0208,-0.0209,-0.0248,-0.0249,-0.025,0,0,0,0,0,0,0,0,0,0,0,0,0,-0.02,-0.0201,-0.0146,-0.0166,-0.0168,-0.0174,-0.0175,-0.0176,-0.0207,-0.0208,-0.0209,-0.0209,-0.0248,-0.0249,-0.025,-0.0244,0,0,-0.0253,-0.0254,0,0,0,0,0,0,0,0,-0.02,-0.0198,-0.0163,-0.0164,-0.0166,-0.0187,-0.021,-0.0199,-0.0207,-0.0193,-0.0209,-0.0209,-0.0228,-0.0231,-0.0236,-0.0246,-0.0248,-0.0253,-0.0254,-0.0254,-0.0255,0,0,0,0,0,0,0,-0.0201,-0.0198,-0.0159,-0.0163,-0.0165,-0.0201,-0.0201,-0.0208,-0.0208,-0.0195,-0.0197,-0.0198,-0.0229,-0.0235,-0.0237,-0.0249,-0.0253,-0.0254,-0.0255,-0.0255,-0.0273,-0.0272,0,0,0,0,0,0,-0.019,-0.0197,-0.0158,-0.0159,-0.0184,-0.0199,-0.0199,-0.0181,-0.0208,-0.0212,-0.0198,-0.02,-0.0233,-0.0236,-0.0239,-0.0234,-0.0254,-0.0255,-0.0256,-0.0273,-0.0273,-0.0272,0,0,0,0,0,0,-0.019,-0.0185,-0.0157,-0.018,-0.0179,-0.0197,-0.0177,-0.0181,-0.0187,-0.021,-0.0215,-0.02,-0.0233,-0.0237,-0.0244,-0.0236,-0.0256,-0.0257,-0.0273,-0.0273,-0.0272,-0.0224,0,0,0,0,0,0,-0.0192,-0.0185,-0.0172,-0.0178,-0.0177,-0.015,-0.0176,-0.0181,-0.0187,-0.019,-0.0213,-0.0217,-0.0234,-0.0243,-0.0245,-0.0237,-0.0257,-0.0273,-0.0273,-0.0273,-0.0226,-0.0222,-0.0219,0,0,0,0,0,-0.0193,-0.0171,-0.017,-0.0166,-0.0156,-0.0149,-0.0151,-0.0169,-0.0186,-0.0179,-0.0202,-0.0217,-0.0243,-0.0243,-0.0246,-0.0238,-0.0273,-0.0273,-0.0273,-0.0227,-0.0223,-0.0219,0,0,0,0,0,0,-0.0193,-0.0172,-0.0172,-0.0144,-0.0142,-0.0154,-0.015,-0.0165,-0.0178,-0.0182,-0.0211,-0.0216,-0.0222,-0.0236,-0.0236,-0.0244,-0.0262,-0.0262,-0.0226,-0.0222,-0.0219,-0.0199,-0.0258,0,0,0,0,0,-0.0184,-0.0159,-0.015,-0.0131,-0.0123,-0.0136,-0.0138,-0.0147,-0.0159,-0.0166,-0.0184,-0.0205,-0.0222,-0.0227,-0.0242,-0.024,-0.0248,-0.024,-0.0236,-0.0233,-0.022,-0.023,-0.0226,-0.0271,-0.0271,-0.0271,0,0,-0.0184,-0.0166,-0.0156,-0.013,-0.0128,-0.011,-0.0139,-0.0132,-0.0127,-0.0167,-0.0167,-0.0193,-0.022,-0.0223,-0.0226,-0.0233,-0.0224,-0.0233,-0.023,-0.0218,-0.0229,-0.0225,-0.0221,-0.0271,-0.0271,-0.0271,0,0,-0.0163,-0.0145,-0.0115,-0.0104,-0.009,-0.0094,-0.0089,-0.0093,-0.0102,-0.0104,-0.0137,-0.0152,-0.0176,-0.019,-0.0203,-0.0187,-0.0208,-0.02,-0.0162,-0.0172,-0.0168,-0.0165,-0.0163,-0.016,-0.0196,-0.0196,-0.0196,0,-0.0164,-0.0117,-0.011,-0.0077,-0.0066,-0.0082,-0.0054,-0.0061,-0.0074,-0.0075,-0.0096,-0.0131,-0.0157,-0.016,-0.0161,-0.0177,-0.0186,-0.0174,-0.0166,-0.0163,-0.016,-0.0159,-0.0156,-0.0193,-0.0194,-0.0194,-0.0194,0,-0.0117,-0.0084,-0.0064,-0.0023,-0.0013,0.0009,0.0008,0.0009,-0.0008,-0.0019,-0.0029,-0.0065,-0.0084,-0.0101,-0.0128,-0.0124,-0.0137,-0.0162,-0.0172,-0.0152,-0.0153,-0.0151,-0.019,-0.0191,-0.0191,-0.0192,0,0,-0.0102,-0.0042,-0.0035,-0.0007,0.0021,0.0035,0.005,0.0063,0.0076,0.005,0.0061,0.002,-0.0004,-0.002,-0.0057,-0.0069,-0.0064,-0.0106,-0.0107,-0.0095,-0.0079,-0.0083,-0.0082,-0.0093,-0.0092,-0.0092,-0.0084,0,-0.0065,0.0004,0.0021,0.0074,0.011,0.0107,0.0123,0.0127,0.0122,0.0128,0.0088,0.008,0.0028,0.0016,-0.0003,-0.0049,-0.0057,-0.0063,-0.0106,-0.0107,-0.0107,-0.0079,-0.0069,-0.0061,-0.0082,-0.0082,-0.0081,0,-0.0016,0.0024,0.0087,0.0134,0.015,0.0172,0.0203,0.0216,0.0219,0.0213,0.02,0.0164,0.0143,0.009,0.004,0.0036,-0.0013,-0.005,-0.0052,-0.0069,-0.0107,-0.0087,-0.0057,-0.0123,-0.0078,-0.0079,-0.0079,0,0.0005,0.0071,0.0121,0.014,0.0188,0.0208,0.0227,0.0243,0.0268,0.0269,0.0283,0.0245,0.0233,0.0167,0.0084,0.006,0.0031,-0.0011,-0.0056,-0.0057,-0.0061,-0.0063,-0.0091,-0.0041,-0.0041,-0.0041,-0.0041,0,0.0049,0.0089,0.0136,0.0167,0.0221,0.0239,0.0294,0.0305,0.0337,0.0381,0.0328,0.0354,0.0249,0.0211,0.0123,0.0053,0.0063,-0.0033,-0.0051,-0.0044,-0.0044,-0.0114,-0.0166,-0.004,-0.0041,-0.0041,-0.0041,0,0.007,0.0104,0.0164,0.0219,0.0239,0.0276,0.0343,0.0386,0.0402,0.046,0.0461,0.0444,0.0399,0.0294,0.0202,0.0117,0.0001,0.0007,0.003,0.0014,-0.0098,-0.0147,-0.0193,-0.0222,-0.0035,-0.0035,-0.0035,0,0.0091,0.0125,0.0197,0.0238,0.0268,0.0326,0.0374,0.0415,0.0472,0.0524,0.0563,0.0533,0.0533,0.0402,0.0247,0.011,0.0019,0.0022,-0.0025,-0.0085,-0.0154,-0.0189,-0.0213,-0.001,-0.001,-0.001,-0.0009,0,0.0122,0.0145,0.0194,0.0278,0.0339,0.0409,0.0486,0.0544,0.06,0.065,0.0724,0.0726,0.0601,0.0474,0.0274,0.0173,-0.0023,0.0021,-0.0049,-0.0136,-0.0167,-0.0209,-0.0029,-0.0008,-0.0008,-0.0008,-0.0008,-0.0008,0.014,0.0177,0.0244,0.0325,0.04,0.0498,0.0567,0.0652,0.075,0.0841,0.0843,0.0863,0.0665,0.0402,0.026,0.0005,-0.0014,-0.0084,-0.0137,-0.0164,-0.02,-0.0007,-0.0008,-0.0008,-0.0008,-0.0008,-0.0009,0,0.0171,0.0217,0.029,0.0394,0.0487,0.0519,0.0648,0.0724,0.0848,0.0917,0.0974,0.0888,0.0654,0.0403,0.0051,-0.0123,-0.0187,-0.022,-0.0269,-0.0285,-0.0115,-0.0123,-0.0138,-0.0138,-0.0138,-0.0138,-0.0138,-0.0138,0.0189,0.0262,0.0305,0.0455,0.0532,0.0659,0.0739,0.0841,0.092,0.1011,0.1021,0.1008,0.0811,0.0205,-0.0186,-0.0272,-0.0388,-0.0421,-0.048,-0.0373,-0.0365,-0.0357,-0.0375,-0.0443,-0.0443,-0.0617,-0.0619,-0.062]}],[{"header":{"parameterUnit":"m.s-1","parameterCategory":2,"la1":30.2991,"la2":30.254,"lo1":-89.0895,"lo2":-89.0444,"dy":0.0017,"dx":0.0017,"nx":28,"ny":28,"refTime":"2024-11-22T09:00:00:Z","depth":"2","parameterNumber":2,"parameterNumberName":"U-component_of_CURRENTS"},"data":[0,0,0,0,0,0,0,0,0,0,0,0,0,0,0,0,0,0,0,0,0,0,0,0,0,0,0,0,0,0,0,0,0,0,0,0,0,0,0,0,0,0,0,0,0,0,0,0,0,0,0,0,0,0,0,0,0,0,0.1742,0.1743,0,0.1772,0.1772,0.1772,0.1781,0.1781,0.1781,0.1781,0.1781,0.1781,0.1781,0,0,0,0,0,0,0,0,0,0,0,0,0,0.1699,0.17,0.1742,0.1743,0.1743,0.1772,0.1772,0.1772,0.1781,0.1781,0.1781,0.1781,0.1781,0.1781,0.1781,0,0,0,0,0,0,0,0,0,0,0,0,0,0.1721,0.17,0.1742,0.1752,0.1753,0.1772,0.1772,0.1773,0.1781,0.1781,0.1781,0.178,0.1781,0.1781,0.1781,0.1784,0,0,0.1782,0.1782,0,0,0,0,0,0,0,0,0.172,0.1722,0.175,0.1751,0.1753,0.1774,0.1757,0.1775,0.1781,0.1769,0.1781,0.178,0.1777,0.1777,0.1782,0.1784,0.1784,0.1782,0.1782,0.1782,0.1782,0,0,0,0,0,0,0,0.1718,0.1721,0.1753,0.175,0.1752,0.1757,0.1759,0.1761,0.1771,0.177,0.1771,0.1776,0.1777,0.1782,0.1782,0.1784,0.1782,0.1782,0.1782,0.1782,0.1843,0.1845,0,0,0,0,0,0,0.1717,0.172,0.1752,0.1754,0.1737,0.1758,0.1761,0.1766,0.1772,0.1774,0.1776,0.1776,0.1781,0.1782,0.1782,0.1813,0.1782,0.1782,0.1782,0.1842,0.1843,0.1845,0,0,0,0,0,0,0.1716,0.1719,0.1751,0.1738,0.1743,0.1758,0.1764,0.1767,0.1782,0.1777,0.1778,0.1791,0.1781,0.1782,0.1802,0.1812,0.1782,0.1782,0.184,0.1842,0.1844,0.1857,0,0,0,0,0,0,0.1714,0.1719,0.1726,0.1738,0.1744,0.1776,0.1765,0.1767,0.1785,0.1786,0.179,0.1789,0.1781,0.1802,0.1802,0.1811,0.1782,0.1838,0.1841,0.1844,0.1854,0.1859,0.1863,0,0,0,0,0,0.1713,0.1726,0.1726,0.173,0.1751,0.1778,0.1781,0.1791,0.1786,0.1802,0.1806,0.179,0.1821,0.1803,0.1803,0.1812,0.1836,0.184,0.1843,0.1852,0.1858,0.1863,0,0,0,0,0,0,0.1715,0.1729,0.1729,0.1746,0.1766,0.178,0.1794,0.1799,0.1814,0.1813,0.1805,0.1806,0.1827,0.1827,0.1808,0.1843,0.1828,0.1831,0.1835,0.184,0.1845,0.1842,0.1782,0,0,0,0,0,0.1717,0.1724,0.1745,0.1757,0.1771,0.1783,0.1795,0.1802,0.1816,0.1822,0.1826,0.1833,0.184,0.1846,0.1854,0.1871,0.1867,0.1882,0.1886,0.189,0.1891,0.1898,0.1903,0.1857,0.1857,0.1857,0,0,0.1716,0.1727,0.1729,0.1757,0.177,0.179,0.179,0.1814,0.1823,0.1819,0.1837,0.1848,0.185,0.187,0.188,0.187,0.1903,0.1894,0.1897,0.1896,0.1902,0.1906,0.191,0.1859,0.1859,0.1858,0,0,0.1721,0.1735,0.1745,0.1763,0.179,0.1802,0.1812,0.1838,0.1845,0.1867,0.1865,0.1888,0.19,0.1907,0.1908,0.1947,0.1926,0.1952,0.1968,0.1976,0.1979,0.1981,0.1983,0.1986,0.1954,0.1954,0.1954,0,0.1724,0.1735,0.1754,0.1772,0.1784,0.1808,0.1824,0.1839,0.1865,0.1873,0.1877,0.191,0.1916,0.1932,0.195,0.1954,0.1953,0.194,0.1979,0.1981,0.1984,0.1985,0.1987,0.1955,0.1954,0.1954,0.1954,0,0.1733,0.1748,0.176,0.1783,0.1802,0.1824,0.1845,0.1867,0.188,0.1892,0.1922,0.1939,0.196,0.1969,0.1969,0.1994,0.1986,0.198,0.1956,0.1988,0.1988,0.1991,0.1956,0.1956,0.1955,0.1955,0,0,0.1725,0.1759,0.1764,0.1774,0.1809,0.1826,0.1846,0.1874,0.1896,0.192,0.1948,0.1968,0.1985,0.1991,0.2,0.2012,0.2033,0.2007,0.2006,0.1994,0.2045,0.1983,0.1979,0.2028,0.2029,0.2029,0.2037,0,0.1728,0.1757,0.1772,0.1797,0.1813,0.1838,0.1858,0.1883,0.1912,0.1952,0.1968,0.2003,0.1989,0.2015,0.202,0.2036,0.2041,0.2031,0.2028,0.2028,0.1957,0.198,0.184,0.183,0.2039,0.204,0.204,0,0.1731,0.1748,0.1772,0.1802,0.1814,0.1834,0.1875,0.1899,0.195,0.1976,0.2007,0.2028,0.2056,0.2049,0.2059,0.2052,0.205,0.2054,0.2054,0.1992,0.1971,0.1834,0.1827,0.2044,0.2044,0.2043,0.2043,0,0.1711,0.1747,0.1765,0.1775,0.1817,0.1832,0.1861,0.1907,0.1936,0.2004,0.2034,0.2061,0.2084,0.2086,0.2083,0.2077,0.2093,0.2085,0.2022,0.2018,0.1896,0.1879,0.2091,0.2091,0.2091,0.2091,0.2091,0,0.1705,0.1717,0.1761,0.177,0.1796,0.1828,0.187,0.1907,0.1971,0.2,0.2048,0.207,0.2094,0.2101,0.2097,0.2059,0.2096,0.2026,0.2016,0.1897,0.1882,0.2065,0.2062,0.2091,0.2091,0.2091,0.2091,0,0.1676,0.1707,0.1728,0.1773,0.1788,0.1809,0.1871,0.1902,0.1966,0.2009,0.2031,0.2082,0.2082,0.2093,0.2104,0.2064,0.2053,0.203,0.1888,0.186,0.197,0.1968,0.1963,0.196,0.1959,0.1957,0.1956,0,0.1662,0.1674,0.1722,0.1735,0.1756,0.1795,0.1819,0.1893,0.192,0.1995,0.2003,0.2041,0.2031,0.2027,0.1986,0.196,0.201,0.1807,0.1769,0.1967,0.1958,0.1958,0.1959,0.1617,0.1613,0.161,0.1607,0,0.1629,0.1655,0.1672,0.1702,0.1729,0.1752,0.179,0.1809,0.1878,0.1903,0.1919,0.193,0.1929,0.1831,0.1808,0.1777,0.1801,0.1739,0.1983,0.167,0.1641,0.1632,0.1644,0.1579,0.1582,0.1584,0.1585,0.1586,0.1604,0.1607,0.1638,0.1655,0.1682,0.1682,0.1667,0.1701,0.1716,0.1716,0.1785,0.1739,0.1741,0.1626,0.1563,0.1514,0.1634,0.1559,0.1569,0.1582,0.154,0.1509,0.1414,0.1415,0.1417,0.1419,0.142,0,0.1553,0.1566,0.1584,0.1587,0.1569,0.1618,0.1617,0.1577,0.1535,0.1571,0.1565,0.1423,0.1359,0.1363,0.1242,0.1226,0.1219,0.1176,0.116,0.1189,0.1215,0.1154,0.0926,0.0924,0.0923,0.0921,0,0,0.1527,0.151,0.151,0.146,0.1466,0.141,0.1386,0.1345,0.1338,0.1279,0.1245,0.1327,0.1344,0.1128,0.1091,0.0988,0.1086,0.0952,0.1353,0.1366,0.139,0.1444,0.1383,0,0,0,0,0]},{"header":{"parameterUnit":"m.s-1","parameterCategory":2,"la1":30.2991,"la2":30.254,"lo1":-89.0895,"lo2":-89.0444,"dy":0.0017,"dx":0.0017,"nx":28,"ny":28,"refTime":"2024-11-22T09:00:00:Z","depth":"2","parameterNumber":3,"parameterNumberName":"V-component_of_CURRENTS"},"data":[0,0,0,0,0,0,0,0,0,0,0,0,0,0,0,0,0,0,0,0,0,0,0,0,0,0,0,0,0,0,0,0,0,0,0,0,0,0,0,0,0,0,0,0,0,0,0,0,0,0,0,0,0,0,0,0,0,0,0.0174,0.0174,0,0.0189,0.0189,0.0189,0.0162,0.0162,0.0161,0.016,0.0134,0.0134,0.0134,0,0,0,0,0,0,0,0,0,0,0,0,0,0.0109,0.0111,0.0173,0.0174,0.0174,0.0189,0.0189,0.0189,0.0162,0.0162,0.0161,0.016,0.0134,0.0134,0.0134,0,0,0,0,0,0,0,0,0,0,0,0,0,0.013,0.0111,0.0173,0.0165,0.0165,0.0189,0.0189,0.0189,0.0163,0.0162,0.0161,0.016,0.0134,0.0134,0.0134,0.0152,0,0,0.0133,0.0133,0,0,0,0,0,0,0,0,0.0129,0.0132,0.0166,0.0166,0.0165,0.0175,0.0157,0.0175,0.0163,0.016,0.016,0.0159,0.0146,0.0145,0.0147,0.0151,0.015,0.0133,0.0133,0.0133,0.0133,0,0,0,0,0,0,0,0.0127,0.0131,0.0177,0.0166,0.0166,0.0156,0.0158,0.016,0.0156,0.0161,0.0159,0.0166,0.0145,0.0147,0.0146,0.0149,0.0133,0.0133,0.0133,0.0133,0.0116,0.0116,0,0,0,0,0,0,0.0133,0.013,0.0176,0.0178,0.0147,0.0159,0.016,0.0171,0.0157,0.0155,0.0167,0.0164,0.0148,0.0146,0.0145,0.0145,0.0133,0.0133,0.0133,0.0116,0.0116,0.0115,0,0,0,0,0,0,0.0132,0.0137,0.0176,0.0156,0.016,0.0161,0.0173,0.0172,0.0168,0.0162,0.0158,0.0164,0.0147,0.0145,0.0139,0.0145,0.0133,0.0133,0.0117,0.0116,0.0116,0.0159,0,0,0,0,0,0,0.013,0.0137,0.0143,0.0156,0.0162,0.0188,0.0174,0.0173,0.0175,0.0172,0.0159,0.0156,0.0146,0.0139,0.0139,0.0144,0.0133,0.0117,0.0116,0.0116,0.0158,0.016,0.0162,0,0,0,0,0,0.0127,0.0144,0.0143,0.0149,0.0172,0.0189,0.019,0.0185,0.0176,0.0177,0.0164,0.0156,0.0134,0.0139,0.0139,0.0144,0.0118,0.0117,0.0116,0.0158,0.016,0.0162,0,0,0,0,0,0,0.0116,0.0144,0.0143,0.0166,0.0175,0.0185,0.0193,0.0187,0.018,0.0176,0.016,0.0157,0.0152,0.0139,0.0145,0.0133,0.0121,0.012,0.0153,0.0155,0.0157,0.0169,0.0132,0,0,0,0,0,0.012,0.0141,0.0157,0.0174,0.0182,0.0186,0.0192,0.019,0.0189,0.0185,0.0172,0.0157,0.0151,0.0145,0.0137,0.0138,0.0124,0.0136,0.0137,0.0139,0.0147,0.013,0.0132,0.0113,0.0113,0.0113,0,0,0.012,0.0139,0.0149,0.0173,0.0182,0.0202,0.0187,0.0201,0.0211,0.0184,0.0186,0.0168,0.0152,0.015,0.0146,0.0139,0.0136,0.0138,0.014,0.0147,0.013,0.0132,0.0134,0.0112,0.0112,0.0112,0,0,0.014,0.015,0.0175,0.0189,0.0209,0.0213,0.0217,0.0224,0.0219,0.0223,0.0202,0.0187,0.0177,0.0165,0.0159,0.0165,0.0148,0.0156,0.0178,0.0162,0.0164,0.0166,0.0149,0.0149,0.0155,0.0155,0.0155,0,0.0138,0.0175,0.0182,0.0211,0.0227,0.022,0.0245,0.0246,0.0244,0.0243,0.0226,0.0205,0.0187,0.0188,0.0184,0.0173,0.0158,0.0176,0.0167,0.0168,0.0169,0.0151,0.0151,0.0157,0.0157,0.0157,0.0157,0,0.0179,0.0207,0.0224,0.0259,0.0271,0.0294,0.0299,0.0299,0.0289,0.0286,0.0278,0.0249,0.0235,0.0222,0.0207,0.0202,0.0188,0.0175,0.0168,0.0174,0.0154,0.0153,0.016,0.016,0.0159,0.0158,0,0,0.0188,0.0242,0.0248,0.0274,0.03,0.0317,0.0332,0.0345,0.0359,0.0336,0.0345,0.0317,0.0292,0.0282,0.0254,0.0235,0.0223,0.0208,0.0207,0.0203,0.0187,0.0173,0.0169,0.0209,0.0209,0.0209,0.0171,0,0.0219,0.028,0.0296,0.0346,0.0378,0.0378,0.0396,0.0402,0.0398,0.04,0.0364,0.0359,0.0319,0.0309,0.0285,0.0242,0.0221,0.0235,0.0172,0.017,0.0166,0.0168,0.0176,0.0142,0.0169,0.0169,0.0169,0,0.0257,0.0296,0.0351,0.04,0.0413,0.0434,0.0462,0.0478,0.0477,0.0471,0.0454,0.0423,0.0391,0.0353,0.0288,0.0298,0.0247,0.0209,0.0206,0.0179,0.0153,0.0138,0.0138,0.0166,0.0166,0.0166,0.0166,0,0.0271,0.0334,0.0378,0.0397,0.0447,0.0464,0.0484,0.0497,0.0522,0.0514,0.0522,0.0477,0.0459,0.0391,0.0303,0.0296,0.023,0.021,0.0149,0.0147,0.0135,0.0132,0.0164,0.0164,0.0165,0.0165,0.0165,0,0.0305,0.0344,0.0389,0.0419,0.0471,0.0491,0.054,0.0551,0.0575,0.0611,0.0558,0.0566,0.0467,0.0413,0.0326,0.0236,0.0246,0.0157,0.0138,0.0148,0.0148,0.0152,0.0152,0.0163,0.0163,0.0164,0.0164,0,0.0323,0.0352,0.0411,0.0465,0.0485,0.0521,0.0587,0.0627,0.0635,0.0677,0.0675,0.0637,0.0564,0.0459,0.0351,0.0273,0.0182,0.0145,0.0162,0.0146,0.0103,0.0104,0.0077,0.0076,0.0076,0.0075,0.0075,0,0.0341,0.0372,0.0441,0.0481,0.051,0.0568,0.0618,0.0654,0.0703,0.0723,0.0749,0.0688,0.0653,0.0489,0.034,0.0191,0.0174,0.0105,0.009,0.011,0.0095,0.0097,0.01,0.0087,0.0086,0.0086,0.0086,0,0.0378,0.0395,0.0443,0.0521,0.058,0.0652,0.0721,0.0768,0.0812,0.0832,0.0851,0.0818,0.0664,0.0511,0.0311,0.0214,0.0128,0.0095,0.0114,0.0109,0.0117,0.0102,0.0105,0.0084,0.0084,0.0084,0.0084,0.0084,0.0401,0.0435,0.0495,0.057,0.0641,0.0727,0.0782,0.0849,0.0913,0.0946,0.0923,0.0869,0.0707,0.0441,0.0273,0.0102,0.0111,0.0049,0.0051,0.0053,0.0063,0.0069,0.0029,0.0028,0.0028,0.0028,0.0028,0,0.0434,0.0476,0.0545,0.0636,0.0715,0.0745,0.085,0.0896,0.096,0.0982,0.0978,0.0812,0.0639,0.0453,0.0193,0.0044,0.0038,-0.0,0.0022,0.0025,0.0028,0.0037,-0.0005,-0.0005,-0.0006,-0.0006,0,0,0.0456,0.0525,0.0561,0.0687,0.0746,0.084,0.0895,0.095,0.0982,0.0991,0.0955,0.0907,0.0682,0.0488,0.0284,0.0135,0.0117,0.011,0.0153,0.0207,0.0211,0.0072,0.0092,0,0,0,0,0]}],[{"header":{"parameterUnit":"m.s-1","parameterCategory":2,"la1":30.2991,"la2":30.254,"lo1":-89.0895,"lo2":-89.0444,"dy":0.0017,"dx":0.0017,"nx":28,"ny":28,"refTime":"2024-11-22T09:00:00:Z","depth":"4","parameterNumber":2,"parameterNumberName":"U-component_of_CURRENTS"},"data":[0,0,0,0,0,0,0,0,0,0,0,0,0,0,0,0,0,0,0,0,0,0,0,0,0,0,0,0,0,0,0,0,0,0,0,0,0,0,0,0,0,0,0,0,0,0,0,0,0,0,0,0,0,0,0,0,0,0,0.0874,0.0875,0,0.0903,0.0903,0.0903,0.0927,0.0928,0.0928,0.0928,0.0969,0.097,0.0971,0,0,0,0,0,0,0,0,0,0,0,0,0,0.0833,0.0833,0.0874,0.0875,0.0875,0.0903,0.0903,0.0903,0.0927,0.0928,0.0928,0.0928,0.0969,0.097,0.0971,0,0,0,0,0,0,0,0,0,0,0,0,0,0.0854,0.0834,0.0874,0.0891,0.0893,0.0902,0.0903,0.0903,0.0927,0.0928,0.0928,0.0929,0.0969,0.097,0.0971,0.0969,0,0,0.0975,0.0975,0,0,0,0,0,0,0,0,0.0853,0.0856,0.0888,0.089,0.0892,0.0912,0.0903,0.0926,0.0927,0.0914,0.0928,0.0929,0.0951,0.0954,0.0957,0.0971,0.0972,0.0975,0.0975,0.0976,0.0976,0,0,0,0,0,0,0,0.0852,0.0855,0.0885,0.0888,0.0891,0.0894,0.0898,0.0908,0.0929,0.0915,0.0917,0.0921,0.0953,0.0956,0.0959,0.0973,0.0975,0.0976,0.0977,0.0977,0.1059,0.106,0,0,0,0,0,0,0.0849,0.0853,0.0884,0.0886,0.0874,0.0894,0.0898,0.0905,0.0929,0.0933,0.092,0.0922,0.0954,0.0957,0.096,0.1014,0.0976,0.0977,0.0978,0.1057,0.1059,0.106,0,0,0,0,0,0,0.0848,0.0852,0.0883,0.087,0.0875,0.0895,0.0902,0.0905,0.0932,0.0933,0.0937,0.0946,0.0954,0.0958,0.0988,0.1013,0.0978,0.0979,0.1055,0.1058,0.106,0.1085,0,0,0,0,0,0,0.0847,0.0851,0.0863,0.087,0.0875,0.0904,0.0901,0.0905,0.0932,0.0935,0.0956,0.0959,0.0955,0.0986,0.0989,0.1014,0.098,0.1054,0.1056,0.1059,0.1083,0.1088,0.1093,0,0,0,0,0,0.0845,0.0852,0.0864,0.0868,0.0889,0.0905,0.0909,0.0923,0.0933,0.0949,0.0963,0.096,0.1006,0.0988,0.0991,0.1017,0.1052,0.1056,0.1059,0.1081,0.1087,0.1093,0,0,0,0,0,0,0.084,0.0856,0.0868,0.0881,0.0902,0.091,0.0925,0.0937,0.0961,0.0972,0.0972,0.0976,0.1012,0.1014,0.0995,0.1051,0.1031,0.1035,0.1047,0.1053,0.1058,0.1066,0.0981,0,0,0,0,0,0.0845,0.086,0.0875,0.0892,0.0901,0.092,0.0932,0.0948,0.0964,0.0976,0.0991,0.101,0.1024,0.1039,0.1051,0.108,0.1081,0.1103,0.1108,0.1112,0.1123,0.1137,0.1144,0.1071,0.1071,0.1071,0,0,0.0849,0.0861,0.087,0.0893,0.0909,0.0924,0.0929,0.0958,0.0978,0.0977,0.1015,0.1028,0.1036,0.1066,0.1084,0.1074,0.1134,0.1116,0.1119,0.1128,0.1141,0.1148,0.1154,0.1073,0.1073,0.1073,0,0,0.0856,0.0876,0.0888,0.0904,0.0935,0.0946,0.096,0.0987,0.1009,0.1045,0.1048,0.1082,0.1106,0.1117,0.1123,0.1168,0.1159,0.1176,0.121,0.1223,0.1229,0.1234,0.1243,0.1248,0.1181,0.1181,0.1181,0,0.0859,0.0877,0.0896,0.0909,0.0924,0.0957,0.0974,0.0997,0.1035,0.1056,0.1066,0.1117,0.1131,0.1157,0.1179,0.118,0.1182,0.1181,0.1228,0.1233,0.1238,0.1246,0.1252,0.1182,0.1182,0.1182,0.1182,0,0.0873,0.089,0.0899,0.0927,0.0947,0.0971,0.1,0.1036,0.1071,0.1094,0.1146,0.1167,0.1198,0.1211,0.1211,0.1254,0.1243,0.1228,0.1207,0.1246,0.1253,0.1258,0.1185,0.1184,0.1184,0.1183,0,0,0.0865,0.0901,0.0906,0.092,0.096,0.0977,0.1017,0.1058,0.1093,0.1141,0.1182,0.1224,0.1249,0.1259,0.1267,0.1289,0.1331,0.1281,0.1281,0.1282,0.1358,0.1256,0.1252,0.1319,0.132,0.1321,0.1348,0,0.0871,0.0894,0.0915,0.0944,0.0956,0.0997,0.1028,0.1075,0.1123,0.1173,0.1212,0.1257,0.126,0.1289,0.131,0.133,0.1347,0.1325,0.1329,0.1329,0.1226,0.1255,0.1325,0.1352,0.1353,0.1354,0.1355,0,0.0873,0.0888,0.0915,0.0951,0.0963,0.0991,0.1056,0.1091,0.1162,0.1202,0.1255,0.1286,0.1342,0.1336,0.1381,0.1366,0.1372,0.1378,0.1379,0.1279,0.1237,0.1307,0.1365,0.1364,0.1363,0.1363,0.1362,0,0.085,0.0885,0.0909,0.0922,0.0969,0.1002,0.104,0.1108,0.1147,0.1233,0.1274,0.1328,0.1373,0.139,0.1415,0.1406,0.1451,0.1432,0.134,0.1333,0.1405,0.1399,0.1458,0.1457,0.1457,0.1457,0.1457,0,0.0834,0.0852,0.0907,0.0917,0.0954,0.0999,0.1054,0.1102,0.1179,0.1225,0.1292,0.1331,0.1392,0.1421,0.1428,0.1399,0.1458,0.1353,0.1334,0.1416,0.1411,0.1408,0.1402,0.1458,0.1458,0.1458,0.1458,0,0.0797,0.0834,0.0859,0.0919,0.0942,0.0973,0.1054,0.1088,0.1172,0.1237,0.1269,0.1353,0.139,0.142,0.1457,0.1407,0.1396,0.1367,0.146,0.1445,0.1268,0.1263,0.1269,0.1265,0.1262,0.126,0.1258,0,0.0776,0.0788,0.0853,0.0874,0.0906,0.0961,0.0993,0.1078,0.1118,0.1235,0.1254,0.1329,0.1369,0.1338,0.1374,0.1361,0.1341,0.1323,0.1292,0.1268,0.125,0.1249,0.1249,0.1253,0.1253,0.1252,0.1251,0,0.073,0.0767,0.0789,0.0833,0.0872,0.0906,0.0967,0.0991,0.1089,0.117,0.1217,0.1237,0.1268,0.1284,0.1278,0.1267,0.1328,0.1292,0.1298,0.1269,0.1249,0.1234,0.1237,0.1241,0.1243,0.1244,0.1244,0,0.0698,0.0705,0.0746,0.0778,0.0823,0.0845,0.0883,0.093,0.0978,0.1109,0.1122,0.1194,0.1269,0.1234,0.1232,0.1208,0.1185,0.1139,0.1153,0.1164,0.1112,0.1071,0.0996,0,0,0,0,0,0.0664,0.0667,0.0689,0.0718,0.0761,0.0792,0.0859,0.0901,0.0998,0.1003,0.1064,0.109,0.1098,0.1132,0.1083,0.1164,0.1178,0.11,0.113,0.1186,0.1198,0.1143,0,0,0,0,0,0,0.0639,0.0656,0.0663,0.0662,0.068,0.0715,0.0759,0.0823,0.0835,0.094,0.095,0.1019,0.1039,0.1118,0.1065,0.107,0.1062,0.1141,0.1138,0.118,0.119,0.1199,0.1147,0,0,0,0,0]},{"header":{"parameterUnit":"m.s-1","parameterCategory":2,"la1":30.2991,"la2":30.254,"lo1":-89.0895,"lo2":-89.0444,"dy":0.0017,"dx":0.0017,"nx":28,"ny":28,"refTime":"2024-11-22T09:00:00:Z","depth":"4","parameterNumber":3,"parameterNumberName":"V-component_of_CURRENTS"},"data":[0,0,0,0,0,0,0,0,0,0,0,0,0,0,0,0,0,0,0,0,0,0,0,0,0,0,0,0,0,0,0,0,0,0,0,0,0,0,0,0,0,0,0,0,0,0,0,0,0,0,0,0,0,0,0,0,0,0,0.0295,0.0295,0,0.0319,0.032,0.032,0.033,0.0331,0.0331,0.0331,0.0341,0.0342,0.0342,0,0,0,0,0,0,0,0,0,0,0,0,0,0.0238,0.0239,0.0295,0.0295,0.0295,0.0319,0.032,0.032,0.033,0.0331,0.0331,0.0331,0.0341,0.0342,0.0342,0,0,0,0,0,0,0,0,0,0,0,0,0,0.0261,0.0239,0.0294,0.0305,0.0306,0.0319,0.032,0.032,0.033,0.0331,0.0331,0.0331,0.0341,0.0342,0.0342,0.0342,0,0,0.0343,0.0343,0,0,0,0,0,0,0,0,0.026,0.0263,0.0303,0.0304,0.0305,0.0323,0.0304,0.0327,0.033,0.032,0.0331,0.0331,0.0335,0.0336,0.0338,0.0342,0.0342,0.0343,0.0343,0.0343,0.0343,0,0,0,0,0,0,0,0.0258,0.0262,0.0303,0.0303,0.0305,0.0302,0.0305,0.0308,0.0325,0.0321,0.0322,0.0327,0.0335,0.0338,0.0339,0.0343,0.0343,0.0343,0.0343,0.0344,0.0355,0.0355,0,0,0,0,0,0,0.0259,0.0261,0.0302,0.0304,0.0284,0.0303,0.0307,0.0316,0.0325,0.0327,0.0327,0.0327,0.0337,0.0338,0.0339,0.0352,0.0343,0.0344,0.0344,0.0354,0.0355,0.0355,0,0,0,0,0,0,0.0258,0.0263,0.0301,0.0283,0.0288,0.0304,0.0314,0.0317,0.0327,0.033,0.0332,0.0336,0.0338,0.0339,0.0349,0.0352,0.0344,0.0344,0.0354,0.0354,0.0355,0.037,0,0,0,0,0,0,0.0256,0.0262,0.0269,0.0284,0.029,0.0315,0.0315,0.0317,0.033,0.0331,0.0338,0.0339,0.0338,0.0348,0.0349,0.0352,0.0344,0.0354,0.0354,0.0355,0.0369,0.037,0.0372,0,0,0,0,0,0.0254,0.0268,0.027,0.0275,0.0299,0.0316,0.0318,0.0328,0.033,0.0337,0.0342,0.0339,0.035,0.0349,0.035,0.0353,0.0354,0.0354,0.0355,0.0369,0.037,0.0372,0,0,0,0,0,0,0.0247,0.0271,0.0273,0.0293,0.0304,0.0318,0.0328,0.0333,0.0342,0.0344,0.0344,0.0345,0.0353,0.0352,0.0351,0.0356,0.035,0.035,0.036,0.0362,0.0363,0.0365,0.0345,0,0,0,0,0,0.0248,0.0265,0.0282,0.0296,0.0305,0.0316,0.0324,0.0331,0.0341,0.0346,0.035,0.0352,0.0354,0.0357,0.0358,0.0365,0.0347,0.0366,0.0367,0.0368,0.037,0.0344,0.0343,0.0355,0.0355,0.0355,0,0,0.0248,0.0264,0.0272,0.0296,0.0307,0.0323,0.0322,0.0338,0.0349,0.0345,0.0361,0.0358,0.0356,0.0362,0.0365,0.0363,0.0354,0.0368,0.0369,0.037,0.0344,0.0343,0.0342,0.0356,0.0356,0.0355,0,0,0.0258,0.0272,0.029,0.0303,0.0323,0.033,0.0337,0.0353,0.0359,0.0372,0.0368,0.0368,0.0376,0.0373,0.0372,0.038,0.036,0.038,0.039,0.0365,0.0364,0.0363,0.0332,0.0328,0.0382,0.0382,0.0382,0,0.0257,0.0284,0.0296,0.0317,0.0331,0.0336,0.0356,0.0362,0.0377,0.0381,0.0379,0.0381,0.038,0.0382,0.0384,0.0383,0.0363,0.0386,0.0366,0.0365,0.0363,0.0332,0.0327,0.0382,0.0382,0.0382,0.0382,0,0.0279,0.0303,0.0316,0.0344,0.0357,0.0376,0.0387,0.0396,0.04,0.0403,0.0406,0.04,0.0401,0.0397,0.0395,0.0385,0.0372,0.0369,0.0363,0.0363,0.033,0.0324,0.0383,0.0383,0.0383,0.0383,0,0,0.0276,0.0323,0.0328,0.0349,0.0375,0.0391,0.0405,0.042,0.0431,0.0429,0.0436,0.0431,0.0423,0.0421,0.0412,0.0392,0.0361,0.0379,0.0377,0.0347,0.0299,0.0281,0.0274,0.0354,0.0353,0.0352,0.0278,0,0.0292,0.0337,0.0354,0.0393,0.0418,0.0427,0.0443,0.0453,0.0456,0.0461,0.0443,0.0447,0.0433,0.0433,0.041,0.0377,0.0349,0.0381,0.0304,0.0302,0.0285,0.0268,0.035,0.0274,0.0273,0.0272,0.0271,0,0.0311,0.0341,0.0384,0.0428,0.0439,0.0459,0.0485,0.05,0.05,0.05,0.049,0.0476,0.0451,0.0438,0.037,0.0391,0.0347,0.0314,0.031,0.0286,0.0274,0.0275,0.0261,0.0262,0.0263,0.0263,0.0264,0,0.0311,0.0362,0.0399,0.0415,0.046,0.0479,0.05,0.0513,0.053,0.0525,0.0526,0.0493,0.0476,0.0419,0.0352,0.036,0.0267,0.0269,0.0207,0.0205,0.0237,0.0239,0.0213,0.0213,0.0213,0.0214,0.0214,0,0.0325,0.0356,0.0406,0.0429,0.0474,0.0497,0.0538,0.0548,0.0563,0.0578,0.055,0.0539,0.047,0.0411,0.035,0.0258,0.0261,0.0202,0.0184,0.0245,0.0249,0.0233,0.0236,0.0211,0.0211,0.0212,0.0212,0,0.0326,0.0357,0.0406,0.046,0.048,0.0514,0.0574,0.06,0.0605,0.0619,0.0617,0.0569,0.0488,0.0408,0.0307,0.0254,0.0171,0.0136,0.0198,0.0186,0.0124,0.0129,0.006,0.0059,0.0058,0.0057,0.0056,0,0.0333,0.036,0.0429,0.0464,0.0495,0.055,0.059,0.0621,0.0643,0.0633,0.0632,0.0563,0.0518,0.0356,0.0274,0.0142,0.0128,0.0082,0.0111,0.0118,0.0108,0.0115,0.0121,0.0054,0.0054,0.0054,0.0053,0,0.035,0.0375,0.0415,0.0484,0.0538,0.0593,0.0644,0.066,0.0682,0.0686,0.0636,0.0556,0.0458,0.0345,0.0238,0.0149,0.0113,0.007,0.0072,0.0099,0.0111,0.0103,0.011,0.005,0.005,0.005,0.0051,0,0.0364,0.039,0.0445,0.0503,0.0567,0.0612,0.0643,0.0663,0.0682,0.0664,0.0644,0.0545,0.0492,0.0346,0.025,0.0157,0.0139,0.0117,0.0117,0.012,0.0163,0.0188,0.0129,0,0,0,0,0,0.0378,0.0406,0.0461,0.0521,0.0581,0.0616,0.0669,0.069,0.0704,0.0671,0.0658,0.0566,0.0416,0.0352,0.0254,0.0232,0.0124,0.0114,0.0099,0.0029,0.0033,0.0073,0,0,0,0,0,0,0.0388,0.0437,0.0457,0.0523,0.0561,0.0626,0.0658,0.067,0.0649,0.0645,0.0566,0.0536,0.0391,0.0466,0.0247,0.022,0.0197,0.0049,0.0047,0.0026,0.003,0.0034,0.0076,0,0,0,0,0]}]]